Starlink 33601

operational
NORAD ID: 62768 Int'l Des: 2025-015 Owner: SPXS Country: US Constellation: starlink
LEOCIRCULAR

About Starlink 33601

Description loading...

Live Position

Loading 3D Globe...

Upcoming Passes

Altitude History

Altitude vs Time

uPlot chart will show altitude changes over time

Two-Line Element Set

1 62768U 25015L 25354.21183450 .00016795 00000-0 57791-3 0 9995
2 62768 53.1620 331.5580 0001422 90.2073 269.9090 15.30198956 52316
Epoch: Dec 20, 2025 • Age: 18 hours

Current Status

Altitude 479.9 km
Velocity 7.63 km/s
Sub-Earth Point 49.42°N, 15.94°E
Launch Date Jan 21, 2025
Age 0.9 years
Type internet

Technical Details

Classification Payload
Mass 575.00 kg
Dry Mass 530.00 kg
Total Mass 575.00 kg
Length 0.30 m
Diameter 4.10 m
Span 29.00 m
Shape Box + pan
Manufacturer SPXS
Bus Type Starlink V2MO
Phase Status In Orbit
Owner/State SPXS/US

Large Constellations

Loading constellations...